Temperature
20 20 21 21 17 14 15 14 13 12 11 11 11 11 10 9 9 10 10 9 8 8 8 8 7 7 7 7 6 6 6 5 5 5 5 5 4 4 4 4 4 4 4 4 4 4 4 5 5
20 21 21 20 15 16 15 14 12 12 11 11 10 10 10 9 10 10 9 8 8 8 8 8 7 7 7 7 6 6 5 5 5 4 4 4 4 4 4 4 4 4 4 4 4 4 4 4 4
20 21 21 15 15 16 17 13 11 11 11 11 10 10 10 10 10 10 9 8 8 8 8 8 7 7 7 6 6 6 5 5 4 4 4 4 4 3 3 3 3 3 3 3 3 3 3 3 3
20 21 19 15 17 15 14 12 11 10 10 11 11 9 10 10 10 10 9 8 8 8 8 8 7 7 7 6 6 5 5 5 4 4 4 4 3 3 3 3 3 2 2 2 2 2 3 3 3
20 20 15 15 15 14 12 11 11 10 10 10 10 9 9 10 10 9 9 8 8 8 8 8 7 7 7 6 6 5 5 5 4 4 4 4 4 3 3 3 2 2 2 2 2 2 3 3 3
21 17 15 16 16 13 12 12 12 11 10 10 10 10 10 10 10 9 8 8 8 8 8 8 7 7 7 7 6 6 5 5 5 5 5 5 4 4 4 3 2 2 2 2 2 2 3 3 3
20 14 16 16 14 13 12 12 12 11 10 11 12 11 10 10 9 8 8 8 7 7 7 7 8 7 7 7 7 6 6 6 5 5 5 5 4 4 4 4 3 3 3 3 3 3 3 3 3
20 13 14 13 13 13 13 13 13 13 12 13 12 11 12 12 10 8 8 7 7 7 7 7 7 7 7 7 7 6 6 6 5 5 5 4 4 4 4 3 3 3 3 3 3 3 3 3 2
19 14 15 14 12 13 12 12 13 12 12 12 12 12 12 12 10 9 8 7 7 7 7 7 7 7 7 7 6 6 6 6 5 5 5 4 4 4 3 3 3 3 3 3 3 2 2 2 1
18 15 15 14 12 13 12 12 12 11 10 11 12 12 12 12 11 11 10 10 9 8 7 7 7 7 7 7 6 6 6 6 5 5 4 4 4 4 3 3 3 3 2 2 2 1 1 0 0
15 15 14 14 13 13 12 12 12 11 9 12 14 14 13 12 11 11 11 10 10 9 8 7 7 7 7 6 6 6 6 5 5 5 4 4 3 3 3 3 2 2 2 1 1 0 -0 -1 -1
13 13 13 13 13 13 12 12 11 11 14 15 14 14 13 13 12 12 12 11 10 9 8 7 7 7 7 6 6 6 6 5 5 5 4 4 3 3 3 2 2 2 1 1 0 -1 -1 -2 -3
13 12 13 13 13 13 12 11 12 13 15 14 14 14 13 13 13 13 12 11 10 9 8 8 7 7 6 6 6 6 5 5 5 4 4 3 3 3 2 2 1 1 0 -0 -1 -2 -2 -3 -3
12 12 12 12 13 12 12 12 11 14 15 14 13 13 14 14 14 13 12 11 10 9 9 8 7 7 6 6 6 6 5 5 5 4 4 3 3 2 2 1 1 0 -0 -1 -2 -2 -3 -4 -4
12 12 12 12 12 12 12 11 10 15 14 14 14 13 13 13 13 13 13 12 11 10 9 8 7 7 6 6 6 5 5 5 4 4 3 3 2 2 1 1 0 -0 -1 -2 -2 -3 -4 -4 -5
13 13 13 13 11 11 12 12 12 15 13 13 14 14 13 13 13 13 12 12 11 10 9 8 7 7 6 6 6 5 5 4 4 4 3 3 2 1 1 0 -0 -1 -2 -2 -3 -3 -4 -4 -5
13 13 14 13 11 10 10 11 11 14 12 12 14 14 14 14 14 13 13 12 11 10 9 8 8 7 7 6 5 5 5 4 4 4 3 2 2 1 1 0 -1 -1 -2 -2 -3 -4 -4 -4 -5
15 14 13 13 12 9 8 9 11 12 11 12 13 14 14 14 15 15 14 12 11 10 9 8 8 7 6 6 5 5 4 4 4 4 3 2 2 1 1 -0 -1 -1 -2 -3 -3 -4 -4 -5 -6
15 14 13 12 11 9 8 10 12 12 10 9 11 13 14 16 16 15 14 13 11 10 10 9 8 7 6 6 5 5 5 5 4 3 3 2 2 1 0 -0 -1 -2 -2 -3 -4 -4 -4 -4 -6
14 13 12 12 11 9 8 9 11 10 10 11 11 12 15 16 16 16 15 13 13 12 11 10 9 8 7 7 6 5 5 4 4 3 3 2 2 1 0 -0 -1 -2 -2 -3 -4 -5 -5 -5 -6
14 13 13 13 12 11 9 11 11 11 10 10 11 14 15 16 17 17 16 15 14 13 13 12 11 10 9 7 6 5 4 4 4 4 3 2 2 1 0 -0 -1 -2 -2 -3 -4 -5 -5 -6 -6
12 13 13 13 12 10 11 11 12 12 10 10 12 14 17 18 18 18 17 16 16 16 15 13 12 11 10 8 7 6 5 5 5 4 3 2 1 1 0 -0 -1 -2 -2 -3 -4 -5 -6 -6 -7
13 13 13 12 11 10 9 10 12 11 12 13 13 16 19 20 19 19 19 18 17 16 15 14 13 12 11 9 8 6 6 5 4 3 3 2 2 1 0 -1 -1 -2 -3 -3 -4 -5 -6 -7 -7
13 12 10 8 8 10 10 9 11 11 13 14 14 17 20 20 20 20 19 18 18 17 16 15 14 13 12 10 9 7 6 5 4 3 3 2 2 1 0 -1 -1 -2 -3 -3 -4 -5 -6 -6 -7
13 12 11 12 11 11 10 9 11 13 12 12 13 17 19 20 20 20 19 19 18 18 17 16 15 14 13 11 10 8 7 5 4 4 3 2 2 1 0 -1 -1 -2 -3 -3 -4 -5 -5 -6 -7
12 12 12 13 12 10 10 9 12 12 12 14 14 16 18 19 20 20 19 19 18 18 17 16 16 15 14 13 11 10 8 6 5 4 3 2 2 1 0 -1 -1 -2 -3 -4 -4 -5 -5 -6 -7
12 10 11 10 10 9 10 10 11 12 12 12 14 15 18 20 20 20 19 19 18 18 17 17 16 15 14 13 12 10 9 7 5 4 3 2 1 1 -0 -1 -1 -2 -3 -4 -4 -5 -5 -6 -7
12 10 8 10 11 10 10 10 12 14 15 14 13 15 17 19 20 19 19 19 18 18 17 16 16 15 14 13 12 11 9 8 6 4 3 2 1 1 -0 -1 -1 -2 -3 -4 -4 -5 -5 -6 -7
10 10 10 8 8 9 10 12 12 12 13 12 12 15 16 18 19 19 18 18 18 17 17 16 16 15 14 13 12 11 9 8 6 4 3 2 1 0 -0 -1 -1 -2 -3 -3 -4 -4 -5 -6 -7
10 10 9 10 10 7 7 11 13 11 11 11 12 16 18 18 18 18 17 17 17 17 17 16 16 15 14 13 12 11 9 7 6 4 3 2 1 0 -0 -1 -2 -2 -3 -3 -4 -4 -5 -6 -7
Wind_Speed
3 3 3 4 6 6 2 3 5 4 4 2 2 3 6 7 5 4 3 5 8 8 7 6 7 8 8 8 9 10 11 12 13 14 15 16 17 18 19 20 21 22 22 23 24 25 26 27 27
2 2 5 5 5 2 4 4 6 5 6 6 4 3 4 3 1 5 5 7 10 10 9 6 8 9 8 8 8 9 10 11 12 13 14 15 16 17 18 19 20 21 21 22 23 24 25 26 26
3 6 5 5 4 4 3 4 6 4 6 5 3 1 2 4 5 7 6 11 10 9 8 5 10 9 8 8 8 8 9 10 12 13 14 14 15 16 17 18 18 19 20 21 22 23 24 25 25
4 6 6 5 2 3 3 2 6 8 4 3 5 2 2 1 6 7 8 13 11 9 7 5 10 9 8 7 7 8 9 10 11 12 13 14 14 15 16 17 17 18 19 20 21 22 23 24 24
5 5 6 3 2 3 3 3 9 8 7 5 6 5 4 1 4 9 10 12 10 9 7 5 9 8 7 7 7 7 8 9 10 11 12 13 13 14 15 16 16 17 18 19 20 21 22 23 23
5 5 4 3 4 3 2 5 8 6 5 5 7 5 4 3 8 10 10 11 13 11 8 6 9 8 7 6 6 7 7 8 9 10 11 12 13 13 14 15 16 16 17 18 19 20 21 22 22
5 5 3 4 3 4 4 7 6 7 6 8 8 6 3 5 8 9 9 11 11 11 10 8 8 8 7 6 6 7 7 8 8 9 11 12 12 13 14 14 15 15 16 17 18 19 20 21 21
6 6 4 3 5 6 5 7 4 9 7 4 9 7 6 8 9 9 7 7 7 8 10 10 9 9 8 7 7 7 7 7 8 9 10 11 12 12 13 14 14 14 15 16 17 18 19 19 21
4 5 3 7 8 6 6 7 4 3 6 4 5 4 1 12 13 10 6 5 5 6 7 10 10 10 10 9 7 7 7 7 8 8 9 10 11 11 12 12 13 13 15 16 17 17 18 18 19
4 4 7 5 6 5 7 8 8 5 4 5 5 3 6 13 16 15 12 11 11 10 7 10 12 12 11 9 9 9 8 8 8 8 9 9 9 9 9 11 12 12 14 15 16 16 16 17 17
3 4 2 0 2 3 7 6 7 8 10 12 10 10 11 13 16 17 15 13 12 10 9 10 13 13 13 11 10 9 9 8 8 8 8 8 7 7 8 10 10 11 11 13 14 14 14 14 14
4 2 2 2 1 4 7 7 6 10 11 7 10 11 12 19 21 21 19 14 11 9 10 10 15 15 14 13 12 11 10 9 9 9 9 8 6 5 5 6 7 8 9 10 10 10 11 12 13
2 1 2 2 2 3 4 5 6 10 11 4 7 12 16 20 20 18 14 12 12 13 13 11 16 16 15 14 12 11 12 11 11 11 10 9 7 5 3 3 4 5 5 6 7 8 9 10 12
2 1 2 1 1 2 4 4 5 12 6 7 9 13 16 19 20 15 14 15 16 16 15 12 14 18 17 14 13 13 14 13 12 12 12 11 9 7 4 2 0 2 3 5 6 8 9 10 11
2 2 4 3 2 1 0 9 11 9 6 9 11 11 13 15 15 19 19 19 18 14 14 14 14 18 17 16 15 14 15 14 14 14 14 13 11 9 6 4 4 4 5 6 7 8 8 8 8
2 4 5 4 5 2 3 12 11 6 9 12 11 11 12 14 15 17 16 15 14 13 14 15 15 15 16 16 16 15 16 15 15 15 15 14 13 11 9 7 7 7 6 7 7 7 4 4 5
4 4 5 6 5 4 6 12 9 4 8 12 12 12 13 13 14 16 16 16 15 16 16 16 14 14 15 16 16 15 15 15 15 16 16 16 15 13 11 10 9 8 7 7 7 4 3 4 6
4 5 6 7 4 6 8 16 18 8 10 13 12 12 13 16 21 17 16 15 15 15 16 16 16 13 13 12 10 8 9 12 14 16 17 17 16 15 13 11 11 9 7 5 5 4 4 5 6
3 5 9 9 4 7 12 20 25 13 11 15 15 14 16 19 15 11 14 14 13 15 17 17 17 14 11 6 6 5 5 5 7 14 17 17 17 16 14 11 11 10 6 5 5 4 5 4 3
4 6 8 8 3 6 9 17 20 14 12 15 16 17 18 16 11 12 13 15 19 19 19 19 20 18 17 12 7 4 4 4 7 12 16 18 18 17 14 14 11 10 6 6 6 4 3 3 2
5 7 7 7 5 4 8 12 10 7 5 7 11 12 12 17 17 14 15 17 18 21 23 21 21 20 18 14 7 4 3 2 4 6 7 15 18 18 16 15 13 11 8 6 7 6 5 4 3
7 7 5 4 4 6 3 8 12 7 8 9 12 12 15 16 15 13 14 16 21 23 19 20 20 20 18 17 15 12 11 10 11 7 7 12 17 17 17 16 15 12 10 7 7 6 6 5 5
7 1 0 2 3 5 3 5 12 7 9 11 11 13 15 14 15 16 17 19 19 17 17 18 18 19 19 19 20 18 15 10 6 6 8 9 11 15 17 16 15 12 11 9 8 6 7 6 6
3 4 4 4 3 5 5 6 10 7 9 9 8 9 11 12 12 14 13 11 13 13 15 16 18 20 19 20 20 20 19 14 10 10 10 9 7 9 14 15 15 14 11 10 10 8 8 7 8
3 4 5 6 3 6 3 5 12 13 10 9 11 11 9 8 9 11 11 13 14 14 17 17 19 21 20 21 22 22 20 17 18 15 14 11 9 8 10 13 12 12 13 13 12 8 8 8 9
4 6 4 4 6 7 4 8 11 12 10 10 11 11 11 11 9 11 12 12 13 14 16 18 21 22 20 22 22 20 18 15 14 15 12 13 11 10 10 13 13 14 14 13 11 7 8 7 9
5 4 4 3 4 5 8 9 13 10 8 8 9 10 12 12 11 11 10 10 11 13 16 19 20 20 20 22 21 19 19 18 16 14 13 10 10 9 11 12 11 12 13 12 10 8 9 8 9
2 6 5 3 3 6 8 7 6 11 11 10 9 11 12 11 11 11 10 10 10 12 12 14 18 20 19 19 20 18 19 19 16 14 15 14 12 11 10 11 11 10 10 11 9 9 9 10 10
5 4 4 3 4 4 6 9 8 10 11 11 13 12 12 12 12 11 9 8 8 9 10 13 16 17 17 19 19 19 18 18 16 16 16 15 13 13 13 12 11 11 11 10 10 10 9 11 11
8 8 8 5 6 6 5 11 11 11 11 10 12 13 12 12 12 11 10 8 8 9 10 13 14 17 18 16 17 19 16 16 18 18 17 15 15 14 13 12 12 12 11 10 11 11 11 11 12
Wind_Direction
79 62 65 56 56 53 128 206 169 157 164 112 98 122 158 167 173 186 129 168 144 131 114 109 118 105 92 79 68 60 54 49 44 41 39 37 35 33 31 29 28 27 26 25 25 24 23 22 21
78 54 54 58 82 44 268 204 190 193 156 135 107 109 126 177 153 129 157 178 149 130 121 117 126 113 100 87 75 65 58 53 48 44 41 38 36 34 31 29 28 27 26 25 24 23 22 21 19
81 50 75 72 98 181 238 198 181 113 136 140 119 77 195 195 179 178 191 164 145 132 130 141 131 120 108 94 81 71 63 58 52 48 44 39 37 36 32 30 28 27 25 24 23 22 21 19 17
75 46 54 71 124 211 252 203 151 130 155 145 146 175 241 214 179 181 155 154 140 135 133 149 137 128 116 102 90 78 68 63 57 53 47 42 40 38 33 30 29 27 25 24 22 21 20 18 16
58 74 59 46 259 261 250 190 156 160 181 176 170 188 229 188 139 141 148 154 147 141 133 140 142 134 123 111 99 86 76 69 63 58 52 45 42 40 34 30 29 27 26 24 22 21 19 17 14
56 66 84 263 259 276 236 168 157 171 169 171 177 190 227 153 149 158 157 160 156 146 130 116 142 136 130 119 109 96 86 78 70 65 59 50 45 41 35 30 30 28 27 24 23 21 20 17 14
106 100 170 215 236 266 210 164 175 173 189 203 180 185 225 188 185 160 156 158 159 151 139 123 118 123 123 118 118 107 96 87 77 71 65 55 48 42 36 30 29 29 27 25 23 21 19 18 14
114 101 103 193 218 250 192 168 193 172 202 166 162 184 230 197 160 141 140 149 159 157 151 144 138 136 129 114 121 115 106 97 85 78 73 64 56 46 37 30 29 29 28 25 24 22 19 18 13
91 85 207 218 205 236 169 173 177 147 134 179 214 217 178 138 137 138 146 167 181 178 172 162 157 153 147 132 123 122 114 107 99 91 86 82 74 59 41 31 31 30 29 26 24 22 19 18 12
78 163 229 209 194 206 179 186 175 149 183 222 238 199 121 142 160 172 180 186 190 191 190 183 174 169 162 153 147 140 134 126 122 117 111 99 85 69 53 40 35 33 31 28 24 21 18 13 5
62 189 229 338 236 179 172 192 178 172 223 217 209 188 156 165 178 189 194 192 194 190 189 187 186 179 173 166 161 158 154 149 147 143 136 122 101 80 64 53 44 40 33 29 21 17 10 2 352
82 24 352 321 216 167 181 177 195 212 226 213 200 164 169 179 190 197 198 196 188 186 196 188 189 185 183 177 174 173 171 171 170 168 161 147 127 103 77 57 43 35 27 19 10 0 351 344 337
78 336 357 0 95 162 158 196 233 243 236 206 152 159 181 190 198 203 201 194 190 196 196 192 189 189 186 183 181 183 184 185 184 180 178 169 154 144 117 74 41 23 11 358 344 335 328 323 319
123 2 315 332 91 164 199 250 246 256 215 181 177 188 196 199 201 197 198 199 200 202 199 192 192 193 189 188 190 188 190 191 189 189 188 184 175 167 162 160 300 319 317 311 308 303 301 300 300
118 352 308 236 200 203 323 284 236 238 157 201 211 210 209 212 205 205 204 204 202 201 197 194 196 194 192 194 195 194 194 192 193 196 194 192 189 185 185 195 228 254 272 282 288 289 287 288 294
42 9 316 263 190 155 174 269 265 209 187 224 225 222 222 222 216 215 210 207 201 197 196 198 198 193 196 196 197 194 194 195 198 198 197 199 199 198 197 206 228 244 254 264 271 267 272 277 281
24 326 289 294 196 169 205 256 272 162 203 237 236 227 227 231 230 222 213 208 202 200 198 198 198 192 195 196 196 195 196 199 200 200 200 202 204 205 204 213 230 239 242 251 263 264 251 272 283
280 275 274 274 227 189 231 256 266 219 214 240 244 235 231 234 234 222 213 208 203 201 200 201 200 194 187 185 184 190 199 206 204 203 204 204 206 207 209 217 229 231 231 242 246 260 258 254 269
235 248 268 266 221 202 245 261 270 257 224 241 243 237 236 239 240 213 206 203 200 201 202 202 200 194 182 176 180 186 207 204 204 208 208 206 206 207 208 214 221 222 219 229 236 250 271 270 264
231 267 274 284 215 217 279 278 272 256 232 233 236 235 235 238 238 216 204 201 205 206 206 205 205 198 194 194 180 176 175 190 202 205 206 207 206 207 209 212 215 219 219 229 233 224 251 265 280
244 231 252 275 318 276 310 298 290 291 244 249 237 236 234 232 236 224 210 208 207 210 209 208 206 202 198 189 168 150 141 149 180 200 204 206 205 207 210 212 214 217 213 222 229 222 225 249 260
263 245 235 278 318 299 354 303 292 289 294 263 246 235 237 235 233 226 214 212 213 216 209 208 205 203 198 189 190 188 195 201 202 194 194 198 203 207 212 215 216 217 217 219 229 227 217 225 253
228 359 248 284 245 297 258 234 283 309 284 269 251 235 236 233 227 228 221 219 218 213 206 207 205 205 199 196 199 201 209 209 183 181 189 197 204 209 213 215 215 217 219 222 226 230 227 222 235
131 59 54 56 73 289 237 200 282 262 241 270 276 250 240 236 229 233 230 220 218 205 204 202 204 208 202 201 203 206 209 200 188 192 197 202 204 209 214 216 216 219 221 223 227 228 231 233 235
97 63 346 337 340 262 202 217 255 258 246 249 273 286 284 263 241 237 230 221 218 207 205 203 205 210 205 204 207 210 210 204 203 201 203 201 204 209 212 213 214 218 223 227 229 227 234 234 237
180 154 179 263 272 292 281 241 258 267 271 261 265 275 286 277 256 245 236 225 221 212 206 203 208 212 206 207 211 211 209 208 210 206 201 203 207 209 204 208 214 219 224 230 228 229 235 236 239
160 198 173 168 283 280 276 286 297 293 301 284 276 279 275 272 265 255 248 232 223 215 210 208 210 213 210 210 210 211 209 209 209 204 202 204 205 203 204 208 213 220 224 228 227 235 237 238 243
165 154 110 147 276 285 290 280 261 298 308 316 308 291 282 281 276 267 257 243 231 222 214 207 211 215 213 210 211 213 211 211 208 202 203 204 204 202 198 205 212 218 223 227 226 236 240 242 247
145 159 162 167 194 223 280 272 238 249 274 292 296 293 289 289 285 279 271 255 238 224 211 211 214 216 215 212 212 213 211 209 206 207 207 205 202 201 206 209 213 219 224 225 229 236 238 244 252
181 191 162 186 238 207 238 270 261 258 272 276 284 291 290 284 281 278 278 272 252 234 221 218 217 218 219 213 211 214 211 206 208 211 208 203 203 203 206 208 214 220 225 226 229 239 244 244 252
Height
1548 1549 1550 1552 1556 1570 1575 1574 1574 1576 1576 1577 1577 1578 1579 1581 1585 1589 1584 1583 1586 1589 1591 1592 1593 1594 1594 1594 1593 1593 1592 1591 1590 1588 1587 1586 1584 1582 1581 1579 1577 1575 1574 1572 1569 1567 1565 1563 1560
1549 1550 1552 1552 1563 1576 1575 1572 1574 1573 1574 1576 1577 1577 1578 1578 1579 1580 1579 1582 1585 1588 1590 1591 1592 1593 1593 1593 1592 1592 1591 1590 1589 1588 1586 1585 1583 1582 1580 1579 1577 1575 1573 1571 1569 1567 1565 1562 1560
1550 1551 1552 1556 1567 1573 1569 1570 1572 1573 1574 1575 1576 1576 1577 1576 1576 1577 1579 1581 1584 1587 1589 1590 1591 1592 1592 1592 1591 1591 1590 1589 1588 1587 1585 1584 1583 1581 1579 1578 1576 1574 1572 1570 1568 1566 1564 1561 1559
1551 1552 1553 1562 1567 1569 1569 1569 1570 1573 1575 1575 1575 1575 1575 1575 1575 1576 1578 1580 1583 1586 1588 1589 1590 1590 1591 1591 1590 1590 1589 1588 1587 1585 1584 1583 1581 1580 1578 1576 1575 1573 1571 1569 1567 1565 1563 1560 1558
1552 1552 1560 1570 1568 1569 1568 1568 1569 1571 1572 1573 1574 1573 1573 1574 1574 1575 1577 1580 1582 1584 1586 1588 1588 1589 1589 1589 1589 1588 1588 1586 1585 1584 1582 1581 1580 1578 1576 1575 1573 1572 1570 1568 1566 1564 1562 1560 1557
1553 1554 1568 1571 1567 1567 1567 1567 1569 1570 1571 1572 1573 1572 1570 1571 1572 1574 1577 1579 1581 1583 1585 1586 1587 1587 1588 1588 1587 1587 1586 1585 1584 1582 1581 1579 1578 1576 1575 1573 1572 1570 1568 1567 1565 1563 1561 1558 1556
1554 1559 1566 1565 1569 1567 1565 1566 1567 1567 1569 1569 1570 1570 1568 1568 1571 1573 1576 1578 1580 1582 1583 1585 1585 1586 1586 1586 1586 1585 1584 1583 1582 1581 1580 1578 1577 1575 1573 1572 1570 1568 1567 1565 1563 1561 1559 1557 1555
1552 1559 1568 1570 1569 1565 1562 1563 1564 1565 1566 1567 1568 1567 1566 1566 1568 1571 1574 1576 1578 1579 1581 1582 1583 1584 1584 1584 1584 1584 1583 1582 1581 1579 1578 1577 1575 1574 1572 1570 1568 1567 1565 1564 1562 1560 1558 1556 1554
1553 1561 1567 1565 1566 1561 1559 1561 1562 1563 1563 1563 1563 1563 1564 1564 1566 1568 1570 1572 1574 1576 1578 1579 1581 1582 1582 1582 1582 1582 1581 1580 1579 1577 1576 1575 1573 1572 1570 1568 1567 1565 1564 1562 1560 1558 1556 1554 1552
1553 1562 1559 1556 1557 1556 1557 1558 1559 1561 1561 1560 1560 1560 1561 1562 1563 1564 1565 1566 1569 1571 1574 1576 1578 1579 1579 1580 1580 1579 1579 1578 1577 1575 1574 1572 1571 1569 1568 1566 1565 1563 1561 1560 1558 1555 1553 1551 1549
1553 1556 1555 1555 1555 1555 1556 1557 1557 1558 1557 1554 1554 1555 1557 1558 1559 1560 1561 1563 1566 1569 1571 1573 1575 1576 1576 1577 1577 1577 1576 1575 1574 1573 1571 1570 1568 1567 1565 1564 1562 1560 1559 1557 1555 1552 1550 1547 1545
1555 1555 1555 1554 1554 1553 1554 1554 1555 1552 1548 1550 1551 1552 1553 1554 1554 1555 1557 1559 1562 1565 1567 1570 1571 1572 1573 1573 1574 1573 1573 1572 1571 1570 1568 1567 1565 1564 1562 1561 1559 1557 1555 1553 1551 1548 1546 1543 1540
1555 1555 1555 1554 1553 1553 1553 1553 1552 1546 1546 1548 1548 1548 1548 1549 1550 1552 1554 1557 1558 1560 1563 1565 1567 1568 1569 1570 1570 1570 1569 1569 1568 1566 1565 1564 1562 1561 1559 1557 1556 1553 1551 1549 1546 1544 1541 1538 1536
1556 1555 1555 1554 1553 1553 1553 1551 1550 1538 1542 1542 1542 1543 1544 1545 1546 1548 1549 1550 1553 1555 1558 1561 1562 1564 1565 1565 1566 1566 1566 1565 1564 1563 1562 1560 1559 1557 1555 1554 1551 1549 1547 1544 1542 1539 1536 1533 1531
1556 1556 1554 1553 1552 1552 1553 1550 1541 1534 1537 1537 1537 1538 1539 1540 1541 1542 1543 1545 1548 1550 1553 1555 1557 1559 1560 1561 1561 1561 1561 1561 1560 1559 1558 1556 1555 1553 1551 1549 1547 1545 1542 1540 1537 1534 1531 1529 1526
1557 1558 1558 1552 1552 1552 1555 1549 1531 1532 1532 1531 1532 1532 1533 1534 1535 1537 1539 1541 1543 1545 1548 1550 1552 1553 1554 1555 1556 1556 1556 1556 1555 1554 1553 1552 1550 1549 1547 1545 1543 1540 1538 1535 1533 1530 1527 1524 1521
1560 1563 1558 1553 1551 1552 1553 1545 1529 1528 1528 1526 1526 1526 1527 1528 1528 1530 1532 1535 1537 1539 1542 1544 1545 1547 1549 1550 1551 1551 1551 1551 1550 1549 1548 1547 1545 1544 1542 1540 1538 1536 1533 1531 1528 1526 1522 1519 1516
1559 1560 1559 1556 1549 1552 1552 1541 1525 1525 1525 1521 1520 1520 1520 1520 1520 1524 1526 1529 1531 1533 1535 1537 1539 1540 1543 1544 1544 1544 1544 1545 1544 1544 1543 1542 1540 1539 1537 1535 1533 1531 1529 1527 1524 1522 1519 1515 1511
1555 1557 1559 1553 1546 1550 1546 1535 1519 1516 1517 1513 1511 1511 1511 1511 1514 1518 1520 1522 1524 1525 1527 1529 1531 1532 1535 1535 1536 1536 1537 1538 1538 1538 1537 1536 1535 1533 1532 1530 1529 1526 1524 1522 1520 1517 1514 1511 1507
1555 1557 1557 1550 1546 1548 1543 1530 1512 1506 1504 1502 1501 1501 1502 1504 1507 1510 1512 1514 1515 1517 1518 1520 1522 1524 1526 1527 1529 1530 1531 1531 1532 1532 1531 1530 1529 1528 1526 1525 1523 1521 1519 1517 1515 1512 1509 1507 1503
1553 1556 1553 1550 1545 1545 1545 1527 1509 1499 1497 1495 1494 1494 1495 1496 1498 1502 1504 1506 1508 1509 1510 1511 1513 1515 1517 1520 1522 1522 1523 1523 1524 1524 1524 1523 1522 1521 1520 1519 1518 1516 1514 1512 1510 1507 1504 1502 1500
1556 1548 1548 1548 1551 1552 1547 1543 1510 1502 1497 1490 1487 1487 1487 1490 1492 1495 1497 1499 1500 1501 1503 1505 1506 1508 1509 1511 1512 1512 1513 1513 1515 1517 1517 1516 1515 1515 1514 1513 1511 1510 1508 1507 1505 1502 1500 1497 1494
1548 1545 1547 1548 1551 1554 1550 1549 1516 1504 1496 1485 1481 1481 1482 1485 1487 1489 1491 1492 1494 1496 1497 1498 1499 1499 1501 1501 1502 1503 1504 1506 1508 1509 1509 1509 1508 1508 1507 1506 1505 1504 1502 1501 1499 1497 1495 1492 1489
1545 1547 1551 1556 1558 1558 1546 1551 1525 1504 1491 1483 1477 1476 1478 1481 1483 1484 1486 1487 1488 1489 1490 1490 1490 1491 1491 1492 1493 1493 1495 1497 1499 1500 1501 1501 1501 1500 1500 1499 1498 1497 1496 1494 1493 1491 1489 1487 1484
1547 1554 1560 1555 1557 1552 1543 1546 1521 1490 1485 1482 1478 1476 1476 1478 1479 1480 1481 1481 1482 1483 1483 1483 1483 1482 1483 1482 1483 1484 1485 1488 1489 1491 1493 1493 1493 1492 1492 1492 1491 1490 1489 1488 1486 1484 1482 1480 1478
1548 1551 1560 1561 1559 1551 1542 1539 1506 1483 1480 1478 1477 1475 1474 1474 1475 1476 1476 1477 1477 1477 1477 1476 1475 1475 1474 1474 1474 1475 1476 1478 1479 1482 1484 1484 1485 1485 1485 1484 1484 1483 1482 1481 1479 1477 1475 1473 1471
1548 1552 1551 1559 1558 1560 1544 1528 1504 1480 1476 1474 1473 1472 1471 1471 1472 1472 1472 1472 1471 1471 1470 1469 1468 1467 1467 1466 1466 1466 1467 1468 1469 1472 1474 1476 1477 1477 1477 1477 1476 1476 1475 1474 1472 1470 1468 1466 1464
1544 1549 1558 1559 1560 1556 1544 1531 1512 1487 1478 1474 1472 1470 1468 1468 1468 1467 1467 1467 1466 1465 1464 1462 1461 1459 1459 1458 1457 1457 1457 1458 1460 1462 1464 1466 1467 1468 1469 1468 1468 1468 1467 1466 1465 1463 1461 1459 1456
1547 1550 1550 1557 1560 1558 1551 1524 1493 1486 1479 1477 1472 1469 1467 1465 1464 1463 1462 1461 1460 1458 1457 1455 1453 1451 1450 1448 1448 1447 1447 1449 1450 1451 1453 1456 1458 1459 1459 1460 1460 1460 1459 1459 1457 1455 1453 1451 1448
1541 1543 1549 1553 1550 1557 1557 1520 1483 1480 1475 1474 1471 1467 1465 1463 1461 1459 1457 1455 1453 1452 1450 1448 1445 1443 1441 1440 1439 1438 1438 1438 1439 1440 1443 1446 1447 1449 1450 1451 1451 1451 1451 1451 1449 1448 1446 1443 1440